ブルーイントン彗星

154P/Brewington (2024)

English version
Home page
Updated on November 27, 2024

---------------------------------------------------------------------

・ プロフィール

・ 写真集

・ 軌道要素

Epoch 2024 Mar. 31.0 TT = JDT 2460400.5
T 2024 June 13.28961 TT                                 Rudenko
q   1.5529468            (2000.0)            P               Q
n   0.09381091     Peri.   47.96007     +0.84717933     -0.52388660
a   4.7969715      Node   343.01700     +0.35210215     +0.67831532
e   0.6762652      Incl.   17.63474     +0.39788348     +0.51520011
P  10.5
>From 2864 observations 2003 Feb. 1-2024 June 19, mean residual 0".6.
     Nongravitational parameters A1 = +3.53, A2 = -0.0287.

・ 星図

・ 光度変化

        m1 =  0.0 + 5 logΔ + 50   log r  [   ,105]  (              〜2024年 9月26日)
        m1 = 11.6 + 5 logΔ + 10.7 log r  [105,   ]  (2024年 9月26日〜              )

---------------------------------------------------------------------

軌道要素はM.P.E.C. 2024-M41に掲載されたものです。
星図はステラナビゲータ Ver.10 (アストロアーツ) で作成したものです。
光度グラフはComet for Windowsで作成したものです。

---------------------------------------------------------------------

Copyright(C) Seiichi Yoshida (comet@aerith.net). All rights reserved.